Total_Precipitation_Accumulation
1.27 1.20 1.19 1.17 1.12 0.93 0.78 0.58 0.55 0.63 0.51 0.41 0.32 0.28 0.25 0.24 0.25 0.28 0.31 0.38 0.44 0.58 0.86 1.27 1.28 1.09 1.20
1.61 1.49 1.28 0.98 0.71 0.50 0.35 0.24 0.17 0.25 0.20 0.16 0.17 0.16 0.14 0.15 0.19 0.21 0.23 0.28 0.38 0.51 0.60 0.69 0.84 0.80 0.80
0.76 0.63 0.53 0.42 0.33 0.26 0.19 0.15 0.11 0.18 0.18 0.16 0.17 0.14 0.12 0.13 0.16 0.18 0.22 0.20 0.19 0.22 0.36 0.40 0.45 0.62 0.68
0.47 0.43 0.38 0.30 0.31 0.30 0.28 0.25 0.22 0.19 0.20 0.18 0.20 0.19 0.17 0.15 0.12 0.09 0.08 0.09 0.13 0.18 0.31 0.49 0.48 0.50 0.46
0.62 0.53 0.38 0.28 0.26 0.25 0.26 0.22 0.23 0.19 0.17 0.17 0.19 0.18 0.16 0.18 0.15 0.14 0.14 0.19 0.27 0.34 0.39 0.51 0.64 0.69 0.53
0.59 0.39 0.23 0.24 0.27 0.30 0.40 0.39 0.35 0.16 0.20 0.17 0.14 0.14 0.10 0.10 0.15 0.17 0.19 0.24 0.31 0.33 0.35 0.41 0.53 0.58 0.55
0.14 0.13 0.16 0.21 0.46 0.47 0.36 0.38 0.28 0.13 0.20 0.22 0.15 0.18 0.17 0.19 0.30 0.30 0.31 0.39 0.44 0.44 0.42 0.39 0.38 0.33 0.31
0.07 0.11 0.20 0.24 0.31 0.47 0.47 0.39 0.30 0.20 0.18 0.33 0.12 0.12 0.15 0.14 0.26 0.33 0.36 0.44 0.52 0.53 0.53 0.52 0.49 0.46 0.43
0.14 0.14 0.19 0.27 0.32 0.49 0.57 0.54 0.47 0.24 0.19 0.33 0.23 0.19 0.16 0.16 0.25 0.47 0.47 0.40 0.35 0.33 0.32 0.37 0.43 0.48 0.42
0.15 0.15 0.16 0.17 0.24 0.22 0.40 0.91 0.71 0.62 0.31 0.76 0.57 0.48 0.75 0.28 0.19 0.21 0.31 0.35 0.40 0.39 0.40 0.40 0.42 0.36 0.34
0.13 0.13 0.16 0.21 0.28 0.30 0.34 0.77 1.09 0.79 0.27 1.15 1.23 0.64 1.01 0.57 0.31 0.31 0.37 0.43 0.50 0.47 0.48 0.49 0.48 0.49 0.57
0.11 0.12 0.15 0.18 0.22 0.31 0.43 0.57 0.72 1.01 0.57 0.75 1.56 0.71 1.20 0.81 0.35 0.28 0.31 0.40 0.66 0.79 0.80 0.76 0.68 0.57 0.52
0.13 0.11 0.13 0.20 0.33 0.41 0.35 0.27 0.32 0.45 0.57 0.63 1.01 0.85 1.00 0.86 0.51 0.31 0.46 0.36 0.66 0.89 0.73 0.58 0.55 0.57 0.53
0.31 0.30 0.35 0.36 0.33 0.36 0.46 0.35 0.47 0.34 0.39 0.47 0.65 0.88 0.87 0.45 0.59 0.46 0.37 0.62 0.58 0.63 0.64 0.50 0.49 0.61 0.59
0.61 0.57 0.51 0.42 0.34 0.32 0.46 0.52 0.56 0.37 0.40 0.43 0.43 0.46 0.49 0.53 0.61 0.35 0.36 0.44 0.66 0.84 0.75 0.62 0.62 0.92 0.80
0.58 0.65 0.70 0.57 0.49 0.38 0.41 0.54 0.55 0.41 0.41 0.38 0.46 0.49 0.40 0.30 0.43 0.60 0.57 0.53 0.71 0.80 0.75 0.93 0.82 0.89 0.70
0.67 0.64 0.69 0.62 0.60 0.53 0.47 0.47 0.40 0.35 0.36 0.39 0.49 0.81 0.97 0.50 0.30 0.57 1.07 0.89 0.67 0.64 0.63 0.70 0.92 1.00 0.73